Precipitable_Water
1.96 1.94 1.89 1.83 1.74 1.69 1.68 1.69 1.73 1.68 1.66 1.65 1.57 1.57 1.54 1.55 1.63 1.68 1.71 1.70 1.70 1.71 1.70 1.66 1.63 1.62 1.60 1.62 1.64 1.63 1.65 1.67 1.62 1.63 1.66 1.74 1.74 1.71 1.68 1.69 1.73 1.75
1.95 1.98 1.97 1.86 1.75 1.70 1.69 1.72 1.72 1.67 1.66 1.66 1.64 1.62 1.65 1.62 1.59 1.63 1.62 1.63 1.68 1.69 1.72 1.71 1.69 1.65 1.61 1.60 1.64 1.63 1.65 1.61 1.55 1.62 1.63 1.69 1.72 1.71 1.67 1.69 1.74 1.81
1.98 2.02 2.00 1.85 1.71 1.65 1.66 1.74 1.76 1.72 1.68 1.71 1.67 1.65 1.70 1.73 1.68 1.67 1.66 1.67 1.66 1.70 1.74 1.72 1.72 1.71 1.67 1.66 1.68 1.67 1.63 1.60 1.56 1.61 1.62 1.67 1.74 1.74 1.73 1.74 1.75 1.76
2.04 2.02 1.98 1.90 1.76 1.65 1.66 1.68 1.71 1.70 1.72 1.73 1.70 1.62 1.65 1.75 1.74 1.68 1.66 1.66 1.62 1.62 1.65 1.67 1.70 1.74 1.74 1.74 1.74 1.69 1.67 1.66 1.68 1.69 1.63 1.67 1.76 1.82 1.82 1.81 1.80 1.79
2.05 2.01 1.97 1.89 1.79 1.72 1.69 1.64 1.63 1.64 1.66 1.64 1.61 1.67 1.60 1.64 1.69 1.71 1.71 1.71 1.67 1.64 1.68 1.74 1.79 1.77 1.75 1.78 1.82 1.77 1.73 1.70 1.74 1.73 1.65 1.63 1.74 1.81 1.82 1.77 1.73 1.71
2.10 2.07 2.02 1.95 1.85 1.76 1.70 1.65 1.64 1.63 1.60 1.59 1.58 1.67 1.75 1.74 1.65 1.65 1.68 1.79 1.75 1.71 1.68 1.71 1.74 1.77 1.81 1.80 1.80 1.81 1.82 1.77 1.77 1.77 1.71 1.66 1.71 1.82 1.81 1.77 1.73 1.68
2.04 2.05 2.03 2.04 1.94 1.84 1.76 1.74 1.76 1.74 1.66 1.67 1.72 1.71 1.79 1.79 1.76 1.68 1.64 1.67 1.72 1.73 1.71 1.67 1.69 1.72 1.78 1.78 1.77 1.80 1.85 1.85 1.85 1.86 1.81 1.80 1.81 1.80 1.79 1.76 1.74 1.70
2.08 2.10 2.12 2.10 2.00 1.90 1.80 1.77 1.77 1.74 1.72 1.71 1.70 1.78 1.83 1.82 1.81 1.78 1.74 1.66 1.64 1.65 1.71 1.74 1.71 1.68 1.71 1.72 1.73 1.76 1.79 1.82 1.86 1.90 1.88 1.86 1.84 1.75 1.75 1.79 1.80 1.75
2.04 2.08 2.14 2.03 1.96 1.94 1.87 1.84 1.83 1.81 1.79 1.75 1.79 1.80 1.81 1.86 1.87 1.81 1.79 1.78 1.72 1.67 1.65 1.65 1.71 1.76 1.74 1.70 1.73 1.82 1.81 1.83 1.86 1.86 1.85 1.83 1.80 1.79 1.79 1.85 1.85 1.81
1.91 1.97 2.08 2.11 2.04 1.97 1.98 1.94 1.91 1.88 1.89 1.91 1.91 1.87 1.81 1.84 1.89 1.84 1.82 1.85 1.80 1.75 1.72 1.68 1.66 1.71 1.76 1.78 1.78 1.84 1.85 1.85 1.84 1.83 1.85 1.87 1.86 1.84 1.87 1.87 1.86 1.84
1.99 1.92 1.84 1.96 2.07 2.08 2.09 2.06 2.02 1.97 1.93 1.90 1.93 1.94 1.94 1.91 1.92 1.92 1.90 1.91 1.84 1.77 1.74 1.73 1.71 1.71 1.74 1.81 1.86 1.91 1.92 1.91 1.90 1.91 1.88 1.87 1.86 1.88 1.92 1.96 1.94 1.90
1.96 1.98 1.85 1.80 1.90 1.98 2.08 2.11 2.10 2.05 2.01 1.99 1.97 1.94 1.98 1.98 1.94 1.90 1.98 2.04 1.99 1.89 1.84 1.80 1.78 1.77 1.78 1.80 1.90 1.97 1.99 1.97 1.95 1.94 1.97 1.98 1.96 1.90 1.81 1.87 1.99 2.07
1.94 1.99 1.99 1.99 1.96 1.96 2.07 2.07 2.08 2.09 2.05 2.00 2.02 1.99 1.95 1.87 1.90 1.89 2.03 2.05 1.99 1.97 1.95 1.96 1.93 1.87 1.82 1.85 1.85 1.88 1.93 1.91 1.87 1.86 1.87 1.87 1.85 1.83 1.85 1.89 1.94 1.92
1.95 2.00 1.98 1.99 2.02 2.00 2.04 2.09 2.13 2.08 2.10 2.12 2.12 2.06 2.01 1.99 1.95 1.97 2.02 2.03 1.98 1.95 1.98 2.06 2.08 2.07 1.96 1.89 1.87 1.88 1.89 1.90 1.92 1.89 1.87 1.85 1.87 1.87 1.93 1.97 1.98 1.97
2.04 2.02 2.05 2.05 2.05 2.07 2.08 2.10 2.09 2.09 2.06 2.07 2.09 2.08 2.06 2.04 2.06 2.03 1.96 1.94 1.98 2.00 2.02 2.12 2.08 2.05 2.10 2.03 1.97 1.93 1.93 1.88 1.89 1.89 1.89 1.86 1.84 1.85 1.89 1.94 1.99 2.03
1.85 1.89 1.94 1.95 1.99 1.96 1.95 1.97 1.97 2.03 2.05 1.99 2.03 2.07 2.10 2.11 2.16 2.13 2.04 1.98 1.98 2.03 2.06 2.10 2.10 2.13 2.10 2.02 2.00 2.01 1.96 1.89 1.89 1.92 1.93 1.88 1.86 1.84 1.86 1.95 2.00 2.05
1.69 1.76 1.84 1.80 1.85 1.84 1.80 1.79 1.78 1.83 1.99 2.01 1.99 2.01 2.03 2.07 2.08 2.02 1.95 1.95 1.98 1.99 1.99 2.13 2.19 2.18 2.09 1.93 1.91 1.93 1.91 1.87 1.87 1.90 1.91 1.89 1.86 1.82 1.80 1.88 1.96 1.99
1.80 1.83 1.81 1.82 1.84 1.84 1.81 1.82 1.84 1.87 1.89 1.87 1.92 1.98 2.04 2.07 2.04 1.97 1.94 1.95 2.00 2.05 2.07 2.06 2.12 2.14 2.08 2.00 2.04 2.01 1.95 1.92 1.92 1.89 1.89 1.89 1.88 1.85 1.86 1.88 1.92 1.94
1.78 1.81 1.84 1.80 1.80 1.80 1.79 1.77 1.77 1.73 1.74 1.71 1.69 1.86 2.00 2.00 1.98 1.96 1.93 1.98 2.02 2.07 2.11 2.15 2.17 2.09 2.02 1.98 2.04 2.05 1.98 1.94 1.92 1.91 1.90 1.90 1.91 1.91 1.93 1.95 1.96 1.96
1.81 1.80 1.81 1.81 1.81 1.78 1.75 1.73 1.75 1.78 1.82 1.86 1.81 1.87 2.02 2.00 2.00 1.88 1.92 1.94 1.98 2.00 2.03 2.07 2.06 2.09 2.04 2.00 2.03 2.02 1.98 1.98 1.94 1.90 1.91 1.93 1.94 1.94 1.94 1.97 1.99 1.94
1.81 1.78 1.78 1.79 1.80 1.79 1.77 1.77 1.77 1.83 1.84 1.85 1.90 1.89 1.94 1.93 1.87 1.96 1.89 1.94 1.95 1.97 1.95 1.93 1.94 1.99 1.94 1.90 1.93 1.95 1.95 1.96 1.97 1.97 1.94 1.95 1.98 1.99 2.01 2.02 2.01 1.97
1.75 1.78 1.80 1.82 1.79 1.79 1.75 1.70 1.70 1.74 1.74 1.78 1.84 1.87 1.90 1.96 1.98 1.95 1.96 1.94 1.90 1.92 1.89 1.86 1.87 1.87 1.85 1.86 1.91 1.95 1.96 1.97 2.00 1.99 1.99 2.01 2.00 2.01 2.03 2.05 2.05 2.04
1.75 1.76 1.75 1.78 1.78 1.72 1.69 1.68 1.71 1.76 1.77 1.71 1.68 1.77 1.79 1.76 1.83 1.84 1.94 1.98 1.95 1.94 1.90 1.91 1.93 1.91 1.89 1.88 1.89 1.93 1.94 2.04 2.03 1.99 1.96 1.98 2.05 2.07 2.05 2.06 2.08 2.09
1.69 1.72 1.68 1.67 1.69 1.67 1.70 1.74 1.81 1.82 1.76 1.70 1.60 1.68 1.74 1.81 1.88 1.88 1.93 1.94 1.94 1.99 2.07 1.92 1.92 1.93 1.89 1.88 1.89 1.91 1.93 1.98 2.05 2.01 2.04 2.08 2.08 2.05 2.07 2.09 2.05 2.07
1.66 1.70 1.68 1.64 1.59 1.59 1.65 1.67 1.70 1.73 1.73 1.69 1.67 1.72 1.75 1.80 1.79 1.85 1.89 1.88 1.93 2.00 2.02 1.98 1.95 1.95 1.94 1.95 1.98 2.03 2.05 2.08 2.12 2.11 2.09 2.05 2.03 2.02 2.04 2.03 2.00 2.05
1.67 1.69 1.68 1.63 1.58 1.58 1.63 1.66 1.71 1.72 1.74 1.72 1.70 1.70 1.68 1.75 1.84 1.78 1.76 1.80 1.92 2.01 1.98 2.00 1.99 1.97 1.97 2.00 2.04 2.14 2.18 2.20 2.15 2.08 1.95 1.93 1.96 1.94 1.89 1.94 1.99 2.03
Wind_Speed
23 22 23 23 22 20 20 19 19 19 18 17 17 17 17 16 16 17 17 16 16 16 16 15 15 15 14 14 14 13 13 12 12 11 10 10 10 10 10 10 9 9
23 22 23 24 23 22 21 21 20 20 19 18 17 17 17 17 17 17 17 17 17 17 16 16 16 15 15 15 14 14 14 13 13 12 11 11 11 11 11 10 10 10
23 22 23 24 24 23 22 22 21 21 20 19 18 17 17 17 18 18 18 17 17 17 17 17 16 16 16 16 15 15 14 14 14 13 12 11 11 11 11 11 11 11
22 22 22 23 24 24 23 23 22 21 21 20 20 19 18 18 18 18 18 18 18 17 17 17 17 16 16 16 15 15 15 14 14 14 13 12 12 11 11 11 11 11
22 22 22 22 23 23 23 23 23 22 22 22 21 20 20 19 19 18 18 18 18 18 18 17 17 17 16 16 16 15 15 15 14 14 14 13 13 13 12 12 12 12
21 22 22 22 23 23 23 23 23 23 23 22 22 22 21 21 20 20 19 19 18 19 19 18 17 17 17 16 16 16 16 15 15 15 15 14 14 14 13 13 13 12
20 21 22 22 22 23 23 23 23 23 23 23 23 23 22 21 21 21 20 20 19 19 19 19 18 18 18 17 17 17 16 16 15 15 15 15 14 14 14 14 14 13
19 20 22 22 22 23 23 23 23 23 23 23 23 23 23 22 21 21 21 21 20 20 19 19 19 19 19 18 17 17 17 16 16 15 15 15 15 15 15 15 14 14
20 21 22 22 23 23 24 24 24 23 23 23 23 24 24 23 22 22 21 21 21 21 20 20 19 19 19 19 18 17 17 17 17 16 16 16 16 16 16 15 15 15
19 20 21 22 23 23 24 24 25 24 23 23 23 24 24 24 23 23 22 22 22 21 21 21 20 19 19 19 19 18 18 18 17 17 17 17 17 17 16 16 16 16
18 19 20 22 23 23 24 25 25 25 25 24 24 24 24 24 24 24 23 23 22 22 22 22 21 21 20 20 19 19 19 18 18 18 17 17 17 17 16 17 17 17
17 18 19 20 21 23 24 25 25 25 26 26 26 25 25 25 25 25 25 24 24 23 23 22 22 22 22 21 20 20 19 19 19 18 18 18 18 17 17 18 18 19
17 17 18 20 21 22 23 24 25 26 26 27 27 26 26 27 26 26 26 26 25 25 24 24 23 23 23 22 21 21 21 20 20 19 19 19 19 19 18 18 19 19
17 17 17 18 20 21 22 23 24 25 26 27 27 27 27 28 28 28 27 27 26 26 26 25 24 24 24 23 23 22 22 22 21 21 20 20 20 19 19 19 18 19
17 17 17 17 19 20 21 22 23 23 24 26 26 27 28 28 29 29 28 28 27 27 27 27 26 26 25 25 24 24 24 23 23 22 22 21 20 20 20 19 19 19
19 18 18 18 18 19 21 22 22 22 23 23 24 25 27 28 29 29 29 29 29 29 29 28 28 27 27 27 26 26 25 25 24 24 23 22 21 21 21 20 20 20
19 18 18 18 17 18 19 20 21 22 22 22 22 23 24 26 27 28 29 29 28 28 29 29 29 28 28 28 28 27 27 26 25 25 24 23 22 22 21 21 21 20
18 18 17 17 17 18 18 18 19 20 21 21 22 22 23 24 26 27 27 27 27 27 27 29 30 29 29 28 28 28 28 27 26 26 25 24 23 22 22 21 21 21
18 18 18 17 17 17 17 17 18 18 18 19 21 22 23 24 25 25 25 26 26 26 26 27 29 30 29 28 28 29 29 28 27 27 26 25 24 23 22 22 21 21
19 19 19 18 18 17 17 17 17 17 17 18 19 21 22 23 23 24 24 24 25 26 26 26 27 28 29 29 29 29 29 28 28 27 27 26 25 24 23 22 22 21
19 19 19 19 18 18 18 17 17 17 17 18 18 19 19 20 21 21 22 22 23 24 25 25 25 26 28 28 29 29 29 29 28 28 27 27 26 25 24 23 22 21
19 19 19 19 18 17 18 17 17 17 17 17 17 17 17 18 18 19 20 20 21 23 24 24 24 25 26 27 27 28 28 29 28 28 27 26 26 25 24 23 22 21
19 19 19 18 18 17 17 17 17 16 16 16 16 16 17 17 17 17 18 19 19 20 22 24 24 24 25 26 27 27 27 28 28 27 27 26 25 25 24 23 22 22
20 19 19 18 18 18 17 17 17 16 16 16 16 16 16 16 16 16 17 18 18 19 20 21 22 22 23 24 25 26 26 27 27 26 25 24 24 24 23 23 22 22
20 20 19 19 18 18 17 17 17 17 16 16 16 16 15 15 15 15 16 16 17 18 18 19 19 20 20 21 22 23 24 24 24 24 24 23 23 23 23 22 22 22
20 20 20 19 18 18 17 17 16 16 16 16 16 15 15 15 15 15 15 15 15 15 16 16 17 17 17 17 18 19 20 20 21 22 23 22 22 22 23 22 21 21
Wind_Direction
227 226 225 224 225 225 225 227 227 227 229 230 231 231 232 233 234 233 234 235 235 235 235 235 237 239 240 241 243 244 246 248 251 254 255 255 258 260 262 261 260 262
226 227 226 225 225 226 226 227 228 228 229 229 231 233 233 234 234 234 235 236 235 234 235 236 237 238 239 241 242 243 245 248 250 252 254 254 256 258 260 261 261 261
225 226 226 226 226 227 227 228 229 230 229 228 230 233 234 235 235 235 235 235 235 235 236 238 239 238 240 241 243 243 245 248 250 251 252 253 254 256 258 261 262 261
225 226 227 227 227 227 228 228 230 231 230 230 230 232 235 236 235 235 235 235 236 237 238 239 238 239 241 242 243 244 245 248 249 250 251 252 253 255 257 260 262 261
226 227 228 228 227 227 228 228 229 230 231 232 231 231 235 236 235 235 235 235 235 236 238 239 239 242 243 243 244 244 245 247 248 249 250 251 252 254 257 260 262 261
227 228 228 229 228 227 227 228 229 231 232 232 231 232 234 236 236 235 235 235 234 236 238 240 241 242 242 242 244 244 245 246 247 248 249 251 251 253 256 260 262 260
233 231 230 230 228 226 226 227 229 230 231 231 232 232 232 234 236 235 235 236 235 236 238 239 240 241 241 243 244 244 245 246 247 247 248 250 251 253 256 258 260 259
239 235 232 231 228 226 227 228 229 230 230 231 232 232 232 234 236 236 236 236 236 237 238 238 240 241 241 243 244 244 244 245 247 247 248 250 251 253 255 256 257 257
244 242 238 234 230 228 228 229 230 231 232 232 233 233 233 234 236 237 237 237 237 238 238 239 240 241 241 242 243 243 243 244 247 248 249 250 251 253 254 254 255 256
248 248 245 240 235 231 230 231 232 233 234 234 234 234 234 235 237 238 239 239 239 238 239 240 240 240 241 242 243 243 243 245 247 249 251 252 253 255 255 255 255 255
250 250 249 245 240 237 234 234 235 235 235 235 236 237 236 236 237 238 239 241 240 240 240 241 241 241 241 242 242 243 244 245 247 249 250 252 254 255 255 257 257 256
254 251 249 247 244 242 239 238 237 237 236 237 238 240 239 238 239 240 240 241 241 241 241 241 241 241 242 242 242 242 243 245 247 249 250 252 254 255 256 260 259 256
259 254 250 248 246 245 244 242 240 239 239 239 240 241 240 239 240 241 241 241 241 242 242 242 242 242 242 243 243 244 245 246 248 250 251 254 256 255 256 259 257 254
264 260 256 251 248 247 248 247 245 243 242 242 241 241 241 241 241 241 242 242 243 243 243 243 242 242 242 242 243 244 245 247 249 251 253 256 257 255 255 257 255 253
269 266 264 260 255 252 252 252 251 249 246 244 242 241 242 242 241 242 243 243 244 244 243 243 243 242 242 242 244 244 245 247 249 251 253 255 256 255 256 256 254 253
272 271 268 266 263 258 257 257 256 254 251 248 245 243 242 241 241 243 243 245 246 246 245 244 244 243 242 243 244 245 246 248 249 250 251 253 254 255 255 255 254 253
271 273 271 270 268 263 261 261 260 258 256 253 250 246 243 242 242 243 244 244 246 247 246 244 243 243 243 244 244 245 246 248 248 249 250 252 253 253 254 254 253 254
269 271 271 271 270 266 264 265 265 263 258 255 252 248 247 245 244 243 244 244 245 247 247 244 243 243 244 244 244 245 246 247 248 248 249 250 251 252 254 253 253 255
267 267 267 268 269 267 265 266 267 265 260 257 255 253 249 247 245 243 244 245 244 246 247 246 246 245 244 244 244 245 245 246 247 248 248 249 250 251 252 252 253 255
265 264 265 267 267 266 265 266 265 263 259 257 258 256 251 247 246 244 245 246 245 245 247 249 248 245 244 244 245 245 245 245 246 247 247 248 249 250 250 251 252 255
263 262 263 264 265 264 264 265 263 260 258 256 258 258 255 251 249 247 247 248 247 246 247 249 249 246 245 245 245 245 245 245 246 247 246 247 248 248 249 250 251 253
262 263 262 263 264 264 264 264 262 260 259 257 256 258 258 257 255 253 252 251 250 249 248 249 250 248 245 245 244 244 245 245 244 244 245 245 246 246 247 248 249 250
260 262 263 263 264 263 263 263 260 258 258 258 257 259 260 259 256 254 254 254 254 253 251 252 252 249 246 244 243 243 244 243 242 242 242 243 243 243 244 246 247 246
257 258 260 262 263 263 263 262 259 258 258 259 259 259 259 257 255 254 256 257 257 257 255 254 253 249 247 246 244 242 242 241 239 238 238 239 240 241 243 245 245 244
255 254 257 260 261 261 262 261 260 260 259 259 258 257 256 257 256 257 258 258 259 260 258 254 251 248 247 245 242 240 238 235 233 232 234 237 239 240 242 244 244 244
255 253 255 257 259 259 260 261 261 261 259 258 256 255 256 258 258 258 260 260 260 261 259 254 249 247 245 241 236 233 230 229 229 232 235 237 239 240 241 242 241 241